[[{"header":{"parameterUnit":"m.s-1","parameterCategory":1,"la1":30.2991,"la2":30.254,"lo1":-89.0895,"lo2":-89.0444,"dy":0.0017,"dx":0.0017,"nx":28,"ny":28,"refTime":"2023-08-13T03:00:00:Z","depth":0,"parameterNumber":2,"parameterNumberName":"U-component_of_WINDS"},"data":[0,0,0,0,0,0,0,0,0,0,0,0,0,0,0,0,0,0,0,0,0,0,0,0,0,0,0,0,0,0,0,0,0,0,0,0,0,0,0,0,0,0,0,0,0,0,0,0,0,0,0,0,0,0,0,0,0,0,3.1331,3.1331,0,3.1352,3.1352,3.1352,3.127,3.1268,3.1265,3.1263,3.1286,3.1289,3.1292,0,0,0,0,0,0,0,0,0,0,0,0,0,3.1219,3.1222,3.1331,3.1331,3.1331,3.1352,3.1352,3.1352,3.1271,3.1268,3.1265,3.1262,3.1285,3.1289,3.1292,0,0,0,0,0,0,0,0,0,0,0,0,0,3.1257,3.1223,3.1331,3.1293,3.129,3.1352,3.1352,3.1352,3.1271,3.1267,3.1264,3.126,3.1284,3.1289,3.1293,3.1393,0,0,3.1306,3.1308,0,0,0,0,0,0,0,0,3.1255,3.1261,3.1298,3.1296,3.1292,3.1304,3.1321,3.1366,3.1272,3.1278,3.1263,3.1259,3.1295,3.1299,3.1311,3.1394,3.1395,3.1306,3.1309,3.1311,3.1312,0,0,0,0,0,0,0,3.1252,3.126,3.1339,3.1299,3.1295,3.1275,3.1276,3.1329,3.1307,3.1277,3.1272,3.1275,3.1293,3.1307,3.1311,3.1395,3.1306,3.131,3.1313,3.1315,3.1557,3.1561,0,0,0,0,0,0,3.1255,3.1258,3.1338,3.134,3.1264,3.128,3.1281,3.1304,3.1306,3.1303,3.1278,3.1271,3.1301,3.1306,3.1311,3.1425,3.1311,3.1315,3.1317,3.1554,3.1558,3.1562,0,0,0,0,0,0,3.1253,3.1263,3.1337,3.1297,3.1305,3.1285,3.1312,3.1307,3.132,3.1307,3.1303,3.1296,3.1298,3.1305,3.1372,3.1425,3.1317,3.1321,3.1549,3.1555,3.156,3.1656,0,0,0,0,0,0,3.125,3.1262,3.13,3.1299,3.1308,3.1398,3.1315,3.131,3.1327,3.1318,3.1322,3.132,3.1296,3.1366,3.1376,3.1429,3.1324,3.1544,3.1552,3.1558,3.1648,3.1664,3.1678,0,0,0,0,0,3.1246,3.1328,3.1303,3.1313,3.1355,3.1402,3.1407,3.1377,3.1332,3.137,3.1361,3.132,3.1418,3.1374,3.1385,3.1439,3.1541,3.1549,3.1558,3.1641,3.1661,3.1678,0,0,0,0,0,0,3.1338,3.1327,3.1299,3.1383,3.1394,3.1388,3.1434,3.14,3.1424,3.1415,3.1378,3.138,3.1453,3.1453,3.1404,3.1534,3.1471,3.1483,3.1531,3.155,3.1565,3.1562,3.1328,0,0,0,0,0,3.1368,3.1406,3.1395,3.147,3.1476,3.1455,3.1474,3.145,3.146,3.1465,3.1461,3.1472,3.1505,3.1528,3.1558,3.1648,3.1646,3.1691,3.1706,3.1719,3.1728,3.1773,3.1792,3.1591,3.1591,3.159,0,0,3.143,3.1429,3.1456,3.1488,3.1494,3.1534,3.1459,3.1506,3.1535,3.1472,3.1533,3.1531,3.1542,3.162,3.1654,3.1622,3.1784,3.173,3.174,3.1743,3.1784,3.1803,3.182,3.1597,3.1596,3.1595,0,0,3.1563,3.1567,3.1628,3.1635,3.1643,3.1628,3.1642,3.1641,3.1637,3.1698,3.165,3.1685,3.1744,3.1752,3.1764,3.1897,3.1859,3.1908,3.1987,3.2031,3.2046,3.206,3.2105,3.2122,3.1918,3.1919,3.1919,0,3.1639,3.1698,3.1664,3.1713,3.1727,3.1671,3.1731,3.174,3.1758,3.1769,3.1734,3.1803,3.1807,3.1884,3.1916,3.1929,3.1943,3.1907,3.2047,3.206,3.2073,3.2115,3.2132,3.1924,3.1924,3.1923,3.1923,0,3.1789,3.183,3.1879,3.1896,3.1916,3.1971,3.1945,3.1969,3.1944,3.1932,3.1993,3.1995,3.2023,3.204,3.2016,3.2114,3.2093,3.2053,3.1989,3.2098,3.2137,3.2153,3.1932,3.193,3.1929,3.1927,0,0,3.1981,3.1977,3.1995,3.2,3.2005,3.2036,3.2087,3.2113,3.2133,3.2148,3.2189,3.2239,3.22,3.2214,3.2191,3.2229,3.2331,3.2184,3.2183,3.2209,3.2435,3.2463,3.2483,3.2307,3.231,3.2312,3.2433,0,3.2109,3.2195,3.2165,3.2253,3.2289,3.2235,3.2279,3.2287,3.2277,3.2306,3.2295,3.2329,3.2278,3.2285,3.2321,3.2311,3.2376,3.2302,3.2343,3.2345,3.2339,3.2504,3.2534,3.2649,3.2448,3.2451,3.2453,0,3.227,3.2288,3.2379,3.2374,3.2388,3.2428,3.2448,3.2477,3.2483,3.2473,3.2487,3.2455,3.2504,3.2441,3.2507,3.2457,3.2472,3.247,3.2473,3.2474,3.2404,3.2506,3.2685,3.2701,3.2477,3.2475,3.2474,0,3.2397,3.2445,3.2504,3.2511,3.2508,3.2537,3.2537,3.2539,3.2556,3.2573,3.2583,3.2607,3.262,3.2639,3.2613,3.257,3.2682,3.2618,3.2673,3.2674,3.2698,3.2696,3.2878,3.2712,3.2712,3.2712,3.2711,0,3.2541,3.2598,3.256,3.2597,3.2658,3.2623,3.2685,3.2679,3.2682,3.2715,3.2672,3.2704,3.2669,3.2699,3.268,3.2735,3.2742,3.2734,3.2728,3.2737,3.2737,3.2744,3.2735,3.2716,3.2715,3.2714,3.2713,0,3.2693,3.267,3.273,3.2721,3.272,3.2766,3.2758,3.2791,3.2777,3.282,3.2828,3.2807,3.2839,3.2815,3.2848,3.2835,3.2907,3.2891,3.2904,3.2899,3.2955,3.2949,3.3146,3.3169,3.2991,3.2992,3.2994,0,3.2785,3.2827,3.2822,3.284,3.2842,3.2874,3.2889,3.2857,3.2875,3.2884,3.2915,3.2943,3.2963,3.3017,3.3004,3.3028,3.301,3.3078,3.3014,3.302,3.3008,3.3004,3.3007,3.309,3.3092,3.3094,3.3095,0,3.2951,3.2937,3.296,3.298,3.2999,3.3013,3.3024,3.3042,3.3008,3.3031,3.3062,3.3077,3.3109,3.3136,3.3155,3.3155,3.3119,3.3116,3.3129,3.3137,3.3142,3.3137,3.2937,3.3111,3.3109,3.3108,3.3107,3.3107,3.3073,3.3107,3.3107,3.3134,3.3138,3.3148,3.3178,3.3167,3.3192,3.3213,3.3193,3.323,3.3233,3.3254,3.3258,3.3286,3.3259,3.3279,3.3284,3.3289,3.3295,3.314,3.329,3.329,3.3289,3.3289,3.3289,0,3.3234,3.3231,3.3256,3.3271,3.3292,3.3255,3.3265,3.3285,3.3317,3.3323,3.3343,3.3377,3.3403,3.3392,3.3414,3.3439,3.3423,3.3446,3.3442,3.3442,3.332,3.3305,3.3458,3.3458,3.3458,3.3458,3.3458,3.3458,3.3319,3.3373,3.3358,3.3413,3.3409,3.3444,3.3451,3.346,3.3464,3.3504,3.3524,3.3517,3.3515,3.3537,3.3558,3.3554,3.3563,3.3592,3.3582,3.3468,3.3451,3.3435,3.342,3.3595,3.3595,3.37,3.3701,3.3702]},{"header":{"parameterUnit":"m.s-1","parameterCategory":1,"la1":30.2991,"la2":30.254,"lo1":-89.0895,"lo2":-89.0444,"dy":0.0017,"dx":0.0017,"nx":28,"ny":28,"refTime":"2023-08-13T03:00:00:Z","depth":0,"parameterNumber":3,"parameterNumberName":"V-component_of_WINDS"},"data":[0,0,0,0,0,0,0,0,0,0,0,0,0,0,0,0,0,0,0,0,0,0,0,0,0,0,0,0,0,0,0,0,0,0,0,0,0,0,0,0,0,0,0,0,0,0,0,0,0,0,0,0,0,0,0,0,0,0,4.662,4.6621,0,4.6735,4.6737,4.6738,4.6705,4.6702,4.67,4.6698,4.6808,4.6813,4.6819,0,0,0,0,0,0,0,0,0,0,0,0,0,4.6362,4.6367,4.6619,4.6621,4.6622,4.6735,4.6737,4.6738,4.6705,4.6702,4.6699,4.6697,4.6807,4.6813,4.6819,0,0,0,0,0,0,0,0,0,0,0,0,0,4.6475,4.6368,4.6619,4.662,4.6621,4.6735,4.6737,4.6739,4.6706,4.6702,4.6699,4.6695,4.6805,4.6812,4.682,4.6938,0,0,4.6843,4.6847,0,0,0,0,0,0,0,0,4.6469,4.6484,4.6618,4.662,4.6621,4.6702,4.6686,4.6805,4.6707,4.6673,4.6698,4.6694,4.6775,4.6785,4.6814,4.6943,4.6948,4.6844,4.6849,4.6852,4.6854,0,0,0,0,0,0,0,4.6461,4.6479,4.6665,4.662,4.6622,4.6611,4.6624,4.6709,4.6742,4.6676,4.6674,4.6688,4.6776,4.6807,4.6817,4.6949,4.6844,4.6851,4.6855,4.6858,4.7179,4.7182,0,0,0,0,0,0,4.6453,4.6473,4.6661,4.6669,4.6535,4.6619,4.6633,4.668,4.6742,4.6748,4.6691,4.6686,4.6796,4.6808,4.6821,4.6962,4.6852,4.6859,4.6864,4.7175,4.718,4.7184,0,0,0,0,0,0,4.6448,4.647,4.6657,4.657,4.6593,4.6627,4.668,4.6684,4.6715,4.6753,4.6758,4.6718,4.6793,4.681,4.6909,4.6965,4.6863,4.687,4.717,4.7176,4.7182,4.7246,0,0,0,0,0,0,4.644,4.6468,4.6516,4.6572,4.6598,4.6746,4.6684,4.6689,4.673,4.6725,4.678,4.6785,4.6792,4.6898,4.6917,4.6974,4.6876,4.7165,4.7173,4.718,4.7239,4.7253,4.7266,0,0,0,0,0,4.6431,4.6528,4.6518,4.6541,4.6658,4.6749,4.6764,4.6772,4.6735,4.6781,4.6805,4.6783,4.6956,4.6908,4.6929,4.699,4.7162,4.7171,4.7179,4.7233,4.7251,4.7265,0,0,0,0,0,0,4.6474,4.6535,4.6525,4.6643,4.6692,4.6744,4.6802,4.6791,4.6849,4.6841,4.6846,4.6859,4.696,4.6985,4.693,4.7106,4.7053,4.7066,4.7087,4.7104,4.7117,4.7108,4.6882,0,0,0,0,0,4.6498,4.657,4.6618,4.6717,4.6742,4.6768,4.6808,4.6811,4.686,4.6879,4.6911,4.6957,4.7022,4.7064,4.7126,4.7243,4.7253,4.7294,4.7308,4.7318,4.7329,4.7391,4.741,4.7212,4.7212,4.7212,0,0,4.6547,4.6589,4.6633,4.6727,4.6765,4.6836,4.6786,4.6863,4.6916,4.689,4.6987,4.7011,4.7063,4.7172,4.7221,4.7195,4.7386,4.7329,4.7338,4.7343,4.7402,4.7421,4.7437,4.7218,4.7217,4.7216,0,0,4.6672,4.6712,4.6799,4.6838,4.6897,4.6914,4.6935,4.6989,4.7005,4.7103,4.7085,4.7145,4.7257,4.7295,4.7328,4.7468,4.745,4.7488,4.7557,4.7617,4.7632,4.7646,4.7695,4.7712,4.7499,4.7499,4.7499,0,4.6724,4.6834,4.6844,4.6924,4.6965,4.6948,4.7034,4.7071,4.7146,4.7173,4.7144,4.7284,4.7317,4.7434,4.7468,4.7496,4.7518,4.7481,4.763,4.7644,4.7657,4.7703,4.7721,4.7503,4.7503,4.7502,4.7502,0,4.6895,4.6971,4.7033,4.7109,4.7157,4.724,4.7259,4.7306,4.7304,4.7323,4.7421,4.7461,4.753,4.7558,4.7556,4.7674,4.7656,4.7629,4.7575,4.768,4.7723,4.7741,4.7509,4.7508,4.7506,4.7505,0,0,4.705,4.7131,4.7153,4.7187,4.7251,4.7309,4.7389,4.746,4.7499,4.7551,4.7617,4.7712,4.7687,4.7725,4.7727,4.778,4.7887,4.7746,4.7747,4.777,4.8017,4.8037,4.8057,4.7875,4.7879,4.7881,4.8012,0,4.7179,4.7325,4.7336,4.7466,4.7535,4.752,4.759,4.7635,4.7655,4.7715,4.7735,4.7802,4.7765,4.7788,4.784,4.7863,4.7936,4.7853,4.7934,4.7937,4.7921,4.808,4.8101,4.8223,4.8029,4.8032,4.8034,0,4.735,4.741,4.7548,4.7602,4.7631,4.7695,4.7759,4.7817,4.7867,4.7878,4.7921,4.7915,4.7995,4.794,4.8049,4.7993,4.8026,4.8042,4.8047,4.8054,4.7991,4.809,4.8262,4.828,4.8061,4.8059,4.8057,0,4.7448,4.7563,4.766,4.769,4.7755,4.78,4.7828,4.7875,4.7916,4.7972,4.7998,4.8062,4.8096,4.8144,4.8154,4.8113,4.8263,4.8209,4.8272,4.8272,4.8303,4.8301,4.8482,4.8327,4.8326,4.8326,4.8326,0,4.7591,4.7675,4.7705,4.7764,4.7858,4.7869,4.796,4.7985,4.8027,4.8089,4.8079,4.8137,4.8148,4.8208,4.8216,4.8304,4.832,4.8329,4.833,4.8329,4.8328,4.835,4.8342,4.8331,4.833,4.8329,4.8328,0,4.7715,4.7739,4.7844,4.7898,4.7913,4.7979,4.8024,4.808,4.8099,4.8178,4.8196,4.8225,4.8295,4.831,4.8392,4.8398,4.8502,4.8495,4.8486,4.8485,4.8547,4.854,4.8748,4.8775,4.8603,4.8605,4.8606,0,4.7805,4.787,4.7932,4.7974,4.8006,4.8074,4.8116,4.8129,4.8173,4.8235,4.8283,4.8352,4.8408,4.8519,4.8545,4.8607,4.8601,4.867,4.861,4.8607,4.8601,4.8596,4.8602,4.868,4.8682,4.8684,4.8685,0,4.796,4.7969,4.8033,4.81,4.8152,4.8205,4.8256,4.829,4.8309,4.8359,4.8432,4.8475,4.856,4.8628,4.869,4.8716,4.8703,4.8704,4.8721,4.8721,4.8712,4.8717,4.8516,4.8698,4.8697,4.8696,4.8695,4.8695,4.8069,4.8126,4.8179,4.8249,4.8289,4.8337,4.8392,4.8419,4.848,4.8552,4.8555,4.8633,4.868,4.8763,4.8794,4.8853,4.8832,4.8857,4.8864,4.887,4.8875,4.8704,4.8864,4.8864,4.8864,4.8863,4.8863,0,4.8223,4.8256,4.8322,4.8394,4.8449,4.8435,4.849,4.8536,4.8607,4.8653,4.8709,4.8791,4.8857,4.8889,4.8953,4.8994,4.899,4.9011,4.9007,4.9013,4.8891,4.8869,4.9013,4.9013,4.9013,4.9013,4.9013,4.9013,4.8309,4.8405,4.8419,4.8533,4.8565,4.8645,4.8677,4.872,4.8757,4.8851,4.8906,4.8928,4.8967,4.9035,4.9093,4.9101,4.9124,4.9148,4.9152,4.9037,4.9022,4.9007,4.8986,4.9153,4.9153,4.9269,4.927,4.9271]}]]